�������ċp�F�����K�X���j�^�v���󋵏��
Date,Time,�ċp�F�����K�X���j�^(cps),����,����(m/s)
2022/06/26,00:00,1.5,�k,0.8
2022/06/26,00:10,1.5,�k,1.4
2022/06/26,00:20,1.4,�k,1.9
2022/06/26,00:30,1.4,�k��,1.2
2022/06/26,00:40,1.4,���쐼,4.1
2022/06/26,00:50,1.4,�쐼,3.4
2022/06/26,01:00,1.5,��쐼,2.5
2022/06/26,01:10,1.3,��쐼,2.6
2022/06/26,01:20,1.5,��쐼,3.4
2022/06/26,01:30,1.4,��,3.2
2022/06/26,01:40,1.5,��,3.6
2022/06/26,01:50,1.5,��,2.3
2022/06/26,02:00,1.4,��,4.5
2022/06/26,02:10,1.4,��,3.1
2022/06/26,02:20,1.5,�쐼,3.1
2022/06/26,02:30,1.5,��쐼,3.2
2022/06/26,02:40,1.3,��쐼,2.5
2022/06/26,02:50,1.4,��,1.2
2022/06/26,03:00,1.4,�k,2.6
2022/06/26,03:10,1.5,�k,1.7
2022/06/26,03:20,1.4,�k,1.5
2022/06/26,03:30,1.4,�k�k��,0.6
2022/06/26,03:40,1.4,-,CALM
2022/06/26,03:50,1.4,�쓌,0.6
2022/06/26,04:00,1.5,-,CALM
2022/06/26,04:10,1.5,-,CALM
2022/06/26,04:20,1.5,�k,0.6
2022/06/26,04:30,1.5,��쓌,0.8
2022/06/26,04:40,1.4,-,CALM
2022/06/26,04:50,1.5,���쓌,0.6
2022/06/26,05:00,1.5,���k��,0.6
2022/06/26,05:10,1.5,-,CALM
2022/06/26,05:20,1.4,���쓌,0.8
2022/06/26,05:30,1.5,�쓌,0.8
2022/06/26,05:40,1.4,�쓌,2.0
2022/06/26,05:50,1.5,��쓌,3.1
2022/06/26,06:00,1.4,��쓌,3.2
2022/06/26,06:10,1.5,��쓌,3.0
2022/06/26,06:20,1.4,��쓌,2.6
2022/06/26,06:30,1.5,��,2.3
2022/06/26,06:40,1.5,��쓌,1.7
2022/06/26,06:50,1.4,��쓌,2.3
2022/06/26,07:00,1.5,��,1.9
2022/06/26,07:10,1.5,��쐼,2.0
2022/06/26,07:20,1.4,��쐼,2.0
2022/06/26,07:30,1.4,��쐼,1.4
2022/06/26,07:40,1.5,��쓌,1.4
2022/06/26,07:50,1.4,��쓌,2.2
2022/06/26,08:00,1.4,��쓌,2.9
2022/06/26,08:10,1.4,��쓌,2.6
2022/06/26,08:20,1.4,��,4.8
2022/06/26,08:30,1.5,��,4.3
2022/06/26,08:40,1.4,��,5.4
2022/06/26,08:50,1.4,��쓌,6.2
2022/06/26,09:00,1.6,��,5.4
2022/06/26,09:10,1.4,��,4.2
2022/06/26,09:20,1.4,��,4.4
2022/06/26,09:30,1.5,��쓌,8.9
2022/06/26,09:40,1.5,��,8.3
2022/06/26,09:50,1.5,��쓌,9.5
2022/06/26,10:00,1.5,��,9.6
2022/06/26,10:10,1.4,��,9.9
2022/06/26,10:20,1.5,��,10.2
2022/06/26,10:30,1.4,��,9.8
2022/06/26,10:40,1.5,��쓌,8.9
2022/06/26,10:50,1.4,��쓌,12.7
2022/06/26,11:00,1.4,��쓌,11.8
2022/06/26,11:10,1.4,��쓌,13.5
2022/06/26,11:20,1.5,��,13.0
2022/06/26,11:30,1.5,��쓌,11.4
2022/06/26,11:40,1.4,��,9.6
2022/06/26,11:50,1.4,��쓌,12.7
2022/06/26,12:00,1.5,��,7.5
2022/06/26,12:10,1.5,��,7.2
2022/06/26,12:20,1.5,-,CALM
2022/06/26,12:30,1.5,�k�k��,3.5
2022/06/26,12:40,1.4,�k�k��,2.5
2022/06/26,12:50,1.4,�k��,1.4
2022/06/26,13:00,1.4,�쐼,0.9
2022/06/26,13:10,1.5,�쐼,2.2
2022/06/26,13:20,1.4,��쐼,3.1
2022/06/26,13:30,1.4,�쐼,3.2
2022/06/26,13:40,1.4,�쐼,3.9
2022/06/26,13:50,1.5,���쐼,3.6
2022/06/26,14:00,1.4,�쐼,3.5
2022/06/26,14:10,1.3,�쐼,2.6
2022/06/26,14:20,1.4,��쐼,2.5
2022/06/26,14:30,1.4,��,3.2
2022/06/26,14:40,1.3,��,2.8
2022/06/26,14:50,1.6,��,3.2
2022/06/26,15:00,1.4,��,3.4
2022/06/26,15:10,1.4,��,3.6
2022/06/26,15:20,1.4,��,3.4
2022/06/26,15:30,1.4,��,4.4
2022/06/26,15:40,1.4,��,5.2
2022/06/26,15:50,1.5,��,5.1
2022/06/26,16:00,1.4,��쓌,3.8
2022/06/26,16:10,1.5,��쓌,4.3
2022/06/26,16:20,1.5,��,2.9
2022/06/26,16:30,1.4,��쓌,3.1
2022/06/26,16:40,1.4,��,1.9
2022/06/26,16:50,1.4,��쓌,1.7
2022/06/26,17:00,1.4,��쓌,1.5
2022/06/26,17:10,1.4,��쓌,1.2
2022/06/26,17:20,1.5,��쓌,1.4
2022/06/26,17:30,1.5,��쓌,2.8
2022/06/26,17:40,1.4,��쓌,6.0
2022/06/26,17:50,1.4,��쓌,6.4
2022/06/26,18:00,1.5,��,5.7
2022/06/26,18:10,1.4,��,5.4
2022/06/26,18:20,1.4,��,5.4
2022/06/26,18:30,1.5,��,5.1
2022/06/26,18:40,1.5,��쐼,4.0
2022/06/26,18:50,1.5,��쐼,3.2
2022/06/26,19:00,1.5,��쐼,3.0
2022/06/26,19:10,1.4,��쐼,3.2
2022/06/26,19:20,1.5,��쐼,3.0
2022/06/26,19:30,1.4,��쐼,2.8
2022/06/26,19:40,1.5,��,2.0
2022/06/26,19:50,1.5,��쐼,1.2
2022/06/26,20:00,1.3,���쐼,0.9
2022/06/26,20:10,1.3,��,1.4
2022/06/26,20:20,1.4,���k��,1.2
2022/06/26,20:30,1.5,���k��,3.6
2022/06/26,20:40,1.4,��,4.7
2022/06/26,20:50,1.4,��,3.9
2022/06/26,21:00,1.4,��,4.5
2022/06/26,21:10,1.4,���쐼,4.4
2022/06/26,21:20,1.5,���쐼,4.8
2022/06/26,21:30,1.4,��,3.8
2022/06/26,21:40,1.4,��,4.4
2022/06/26,21:50,1.5,��,3.4
2022/06/26,22:00,1.5,��,2.8
2022/06/26,22:10,1.3,��,4.8
2022/06/26,22:20,1.5,��,3.5
2022/06/26,22:30,1.5,��,2.0
2022/06/26,22:40,1.4,�쐼,2.2
2022/06/26,22:50,1.4,�쐼,3.5
2022/06/26,23:00,1.4,���쐼,5.6
2022/06/26,23:10,1.4,���쐼,5.6
2022/06/26,23:20,1.4,���쐼,5.2
2022/06/26,23:30,1.5,��,5.9
2022/06/26,23:40,1.5,���쐼,5.4
2022/06/26,23:50,1.4,���쐼,4.1
